Regional Weather Roundup
Issued by NWS

Home | Current Version | Previous Version | Graphics & Text | Print | Product List | Glossary On
Versions: 1 2 3 4 5 6 7 8 9 10 11 12 13 14 15 16 17 18 19 20 21 22 23 24 25 26 27 28 29 30 31 32 33 34 35 36 37 38 39 40 41 42 43 44 45 46 47 48 49 50
000
ASUS43 KFSD 292302
RWRSD

WEATHER ROUNDUP FOR SOUTH DAKOTA
NATIONAL WEATHER SERVICE SIOUX FALLS SD
500 PM CST THU JAN 29 2015

NOTE: "FAIR" INDICATES FEW OR NO CLOUDS BELOW 12,000 FEET WITH NO
SIGNIFICANT WEATHER AND/OR OBSTRUCTIONS TO VISIBILITY.


SDZ001>005-009-010-012>017-300000-
NORTHWEST AND NORTH CENTRAL SOUTH DAKOTA

CITY           SKY/WX    TMP DP  RH WIND       PRES   REMARKS
BUFFALO          N/A     43   8  23 S5        30.31S
FAITH            N/A     41  13  31 CALM      30.39F
MOBRIDGE       CLEAR     35  21  56 CALM      30.43R
$$

SDZ012>016-024>037-041>051-057-063-072>074-300000-
SOUTHWEST AND SOUTH CENTRAL SOUTH DAKOTA

CITY           SKY/WX    TMP DP  RH WIND       PRES   REMARKS
RAPID CTY ARPT CLEAR     44  13  28 E5        30.39F
PIERRE         CLEAR     38  21  50 W6        30.45R
CUSTER         CLEAR     38  12  34 S6        30.34S
ELLSWORTH AFB  CLEAR     44  14  30 E5        30.38F
PHILIP         CLEAR     43  18  36 NE3       30.43S
PINE RIDGE     CLEAR     44  -1  15 CALM      30.42R
WINNER         FAIR      40  20  44 N10       30.46S
$$

SDZ004>011-016>023-039-040-300000-
NORTHEAST SOUTH DAKOTA

CITY           SKY/WX    TMP DP  RH WIND       PRES   REMARKS
ABERDEEN       CLOUDY    25  17  72 N15       30.50F WCI  13
WATERTOWN      CLOUDY    22  15  75 NW15      30.45R WCI   9
SISSETON         N/A     21  14  74 N16       30.49R WCI   7
$$

SDZ017-020-022-023-036>040-048>070-300000-
SOUTHEAST SOUTH DAKOTA

CITY           SKY/WX    TMP DP  RH WIND       PRES   REMARKS
SIOUX FALLS    CLOUDY    28  19  69 NW18      30.45R WCI  15
HURON          CLOUDY    28  19  69 N13       30.50R WCI  17
MITCHELL       CLOUDY    30  22  72 N14       30.51R WCI  19
YANKTON        CLOUDY    30  21  69 N12       30.49R WCI  21
$$

ABBREVIATIONS USED IN REMARKS
   TC - TEMPERATURE IN CELSIUS
  WCI - WIND CHILL INDEX
   HX - HEAT INDEX
  VSB - VISIBILITY




USA.gov is the U.S. government's official web portal to all federal, state and local government web resources and services.